Regional Weather Roundup
Issued by NWS

Home | Current Version | Previous Version | Graphics & Text | Print | Product List | Glossary On
Versions: 1 2 3 4 5 6 7 8 9 10 11 12 13 14 15 16 17 18 19 20 21 22 23 24 25 26 27
000
ASUS45 KSLC 231310
RWRUT

UTAH REGIONAL WEATHER ROUNDUP
NATIONAL WEATHER SERVICE SALT LAKE CITY UT
700 AM MDT WED APR 23 2014

UTZ001>011-023>025-231400-

NORTHERN UTAH

CITY           SKY/WX    TMP DP  RH WIND       PRES   REMARKS
HILL AFB       MOCLDY    36  31  82 SW2       29.96R
LOGAN          CLEAR     35  32  88 SW5       29.95R WCI  31
OGDEN          MOCLDY    37  31  78 S6        29.96R WCI  32
PROVO AIRPORT  MOCLDY    39  27  60 N10       29.96S WCI  32
SALT LAKE CITY MOCLDY    41  29  62 NW7       29.97R
VERNAL         CLEAR     41  23  48 W9G17     29.83R
WENDOVER       CLEAR     39  16  38 NW10      30.00R WCI  32
HEBER CITY     MOCLDY    34  28  80 NE7       29.92S WCI  28
WEST JORDAN    CLEAR     37  28  70 NW13      29.97R WCI  29

$$

UTZ012>022-026-027-231400-

SOUTHERN UTAH

CITY           SKY/WX    TMP DP  RH WIND       PRES   REMARKS
BRYCE CANYON   CLOUDY    29  22  75 NW6       29.91R WCI  23
CEDAR CITY     CLOUDY    32  22  66 N3        29.92R
MILFORD        CLOUDY    37  26  64 N14       29.94R WCI  28
MOAB/CYNLANDS  CLEAR     44  21  40 W9        29.80R
PRICE          MOCLDY    39  20  46 NW5       29.86R
ST GEORGE      PTSUNNY   55  18  22 NW5       29.88R
KANAB            N/A     36  10  35 CALM      29.92R

$$

REGIONAL REPORTS     COLORADO/ARIZONA

CITY           SKY/WX    TMP DP  RH WIND       PRES   REMARKS
CRAIG, CO      CLOUDY    37  35  92 CALM      29.85S
GRAND JUNCTION PTCLDY    51  24  34 W9        29.76R
RIFLE          MOCLDY    48  28  46 NW8G23    29.81R
MONTROSE       PTCLDY    52  23  32 CALM      29.79R
CORTEZ         CLEAR     46  25  43 S8        29.83R
PAGE, AZ       MOCLDY    53  21  28 NW10      29.83R
GRAND CANYON   MOCLDY    26   9  48 CALM      29.90R
KINGMAN        CLEAR     47   4  17 CALM      29.86R
FLAGSTAFF      MOCLDY    38  19  46 VRB3      29.90R

$$

REGIONAL REPORTS    NEVADA/IDAHO/WYOMING

CITY           SKY/WX    TMP DP  RH WIND       PRES   REMARKS
LAS VEGAS, NV  CLOUDY    62   9  12 N13       29.83R
ELY            PTCLDY    23  19  85 S8        30.00R WCI  14
ELKO           CLEAR     25  22  88 CALM      30.02R
POCATELLO, ID  PTCLDY    34  26  72 SW22      29.92R WCI  22
BURLEY         CLEAR     33  26  75 SW14G23   29.95R WCI  23
EVANSTON, WY   PTCLDY    26  21  81 SW18      29.89R WCI  13
ROCK SPRINGS   MOCLDY    32  26  78 SW18      29.84R WCI  20

$$



USA.gov is the U.S. government's official web portal to all federal, state and local government web resources and services.